STARLINK-5748, 55604

Orbit data source: Space-Track

STARLINK-5748, 55604 is a payload satellite owned by SpaceX/Seattle (US) in LEO that was launched on Sun, 12 Feb 2023 UTC via an FALCON 9 launch vehicle from the Air Force Eastern Test Range (AFETR). Payload-class satellites include a variety of spacecraft equipped with specific instruments for various scientific and technological missions. These include communications satellites like Starlink; space stations such as the ISS; scientific satellites like the Hubble; Earth observation satellites from companies like Planet Labs, Umbra, and HawkEye 360; GPS; miniature CubeSats for education and research; and military/defense satellites.

Loading next visibility...
Identifier
55604, 2023-020AM
Orbit
LEO
Country
Flag of USUS
Related business
Manufacturer
SpaceX/Seattle
Mission
Operational Commercial Communications
Bus & Motor
STARLINK, Unknown motor
Mass
305 kg wet, ~290 kg dry
Launch date (UTC)
2023-02-12 (4 years ago)
Launch vehicle
FALCON 9
Launch site
Air Force Eastern Test Range (AFETR)
Object type
Payload
Rocket body
Debris
Shape & HBR
Box + 1 Pan, 10.1 m
Radar Cross Section
13.562 m², Large (>1 m²)

Expand to show TLE details & history
Last TLE update: 19 hours ago

TLE from 19 hours ago
0 STARLINK-5748
1 55604U 23020AM  26264.14955420  .00000228  00000-0  17823-4 0  9994
2 55604  43.0036 315.5523 0001762 278.8458  81.2194 15.27575400199101
Epoch: 2026-09-21T03:35Z
TLE epoch observation values (Epoch: 2026-09-21T03:35:21.482Z)
Latitude
-0.00005°
Longitude
-98.32078°
Altitude
482.654 km
Speed
7.626 km/s
True Right ascension
21h 02m 12s
True Declination
0° 00' 00"
Sunlit
Object was in full shadow at epoch
Visualization orbit readout
Latitude
Unknown
Longitude
Unknown
Altitude
Unknown
Speed
Unknown
Apparent Right ascension
Unknown
Apparent Declination
Unknown
Sunlit
N/A
Visualization observer readout
Local Sidereal Time
15:11:21
Azimuth
Unknown
Elevation
Unknown
Doppler factor
Unknown
Orbital elements
Apogee altitude
486.217 km
Perigee altitude
483.798 km
Semi-major axis
6,863.144 km
Eccentricity
0.00018
Inclination
43.0036°
RAAN
315.5523°
Arg. of periapsis
278.8458°
True anomaly
81.23936°
Mean anomaly
81.2194°
Eccentric anomaly
81.22938°
Mean motion
3.81732 °/min
Orbital period
94.31 mins
BSTAR
0.000017823
Loading maneuver chart data...
Computing Atmospheric mass density...
Loading historical data...
Loading historical data...
Loading historical data...
Loading historical data...
Loading historical data...
Loading historical data...
Loading historical data...

Documentation

Showing up to 5 results
|